When you browse on this site, cookies collect data to enhance your experience and personalize the content and advertising you see.
Visit our Privacy Policy to learn more. By continuing to use the site, you agree to this use of cookies and data.
  • In Latvia
  • List of Countries
  • For 7 days
  • Water Temperature
  • Weather Map
  • Weather Widgets
  • user-avatar
    Login

    Hourly Weather Baar

    Today, 15 September, Sunday

    Time Temperature Precipitation Wind Pressure Humidity
    00:00 +16°C° 0 mm 0 mps 730 mmHg 95%
    01:00 +16°C° 0 mm 0 mps 730 mmHg 94%
    02:00 +16°C° 0 mm 0 mps 730 mmHg 94%
    03:00 +15°C° 0 mm 0 mps 730 mmHg 94%
    04:00 +15°C° 0 mm 0 mps 729 mmHg 94%
    05:00 +16°C° 0 mm 0 mps 729 mmHg 93%
    06:00 +16°C° 0 mm 0 mps 729 mmHg 92%
    07:00 +16°C° 0 mm 0 mps 729 mmHg 91%
    08:00 +21°C° 0 mm 1 mps 729 mmHg 84%
    09:00 +23°C° 0 mm 1 mps 729 mmHg 76%
    10:00 +25°C° 0 mm 1 mps 729 mmHg 69%
    11:00 +26°C° 0 mm 1 mps 729 mmHg 64%
    12:00 +28°C° 0 mm 1 mps 729 mmHg 60%
    13:00 +29°C° 0 mm 1 mps 729 mmHg 55%
    14:00 +29°C° 0 mm 1 mps 729 mmHg 55%
    15:00 +29°C° 0 mm 1 mps 728 mmHg 56%
    16:00 +29°C° 0 mm 1 mps 728 mmHg 56%
    17:00 +26°C° 0.1 mm 1 mps 728 mmHg 65%
    18:00 +24°C° 0.1 mm 1 mps 727 mmHg 75%
    19:00 +20°C° 0.1 mm 0 mps 727 mmHg 84%
    20:00 +21°C° 0 mm 1 mps 727 mmHg 86%
    21:00 +21°C° 0 mm 1 mps 727 mmHg 87%
    22:00 +20°C° 0 mm 1 mps 727 mmHg 88%
    23:00 +20°C° 0 mm 1 mps 727 mmHg 88%

    Tomorrow, 16 September, Monday

    Time Temperature Precipitation Wind Pressure Humidity
    00:00 +19°C° 0 mm 1 mps 727 mmHg 88%
    01:00 +19°C° 0 mm 1 mps 727 mmHg 88%
    02:00 +19°C° 0 mm 1 mps 727 mmHg 88%
    03:00 +19°C° 0 mm 1 mps 727 mmHg 87%
    04:00 +18°C° 0 mm 1 mps 726 mmHg 87%
    05:00 +19°C° 0 mm 1 mps 726 mmHg 86%
    06:00 +19°C° 0 mm 1 mps 726 mmHg 85%
    07:00 +17°C° 0 mm 0 mps 726 mmHg 84%
    08:00 +19°C° 0 mm 0 mps 726 mmHg 77%
    09:00 +24°C° 0 mm 1 mps 726 mmHg 69%
    10:00 +26°C° 0 mm 1 mps 726 mmHg 61%
    11:00 +27°C° 0 mm 1 mps 726 mmHg 57%
    12:00 +28°C° 0 mm 1 mps 726 mmHg 54%
    13:00 +29°C° 0 mm 2 mps 726 mmHg 50%
    14:00 +29°C° 0.1 mm 2 mps 725 mmHg 54%
    15:00 +28°C° 0.1 mm 2 mps 725 mmHg 57%
    16:00 +28°C° 0.1 mm 2 mps 725 mmHg 61%
    17:00 +26°C° 0.4 mm 1 mps 724 mmHg 69%
    18:00 +23°C° 0.4 mm 1 mps 724 mmHg 78%
    19:00 +19°C° 0.4 mm 0 mps 724 mmHg 87%
    20:00 +20°C° 0.1 mm 1 mps 725 mmHg 89%
    21:00 +20°C° 0.1 mm 1 mps 725 mmHg 90%
    22:00 +19°C° 0.1 mm 1 mps 725 mmHg 92%
    23:00 +19°C° 0 mm 1 mps 725 mmHg 92%

    Day after tomorrow, 17 September, Tuesday

    Time Temperature Precipitation Wind Pressure Humidity
    00:00 +18°C° 0 mm 1 mps 725 mmHg 93%
    01:00 +16°C° 0 mm 0 mps 724 mmHg 93%
    02:00 +15°C° 0 mm 0 mps 724 mmHg 93%
    03:00 +15°C° 0 mm 0 mps 724 mmHg 93%
    04:00 +15°C° 0 mm 0 mps 724 mmHg 93%
    05:00 +15°C° 0 mm 0 mps 724 mmHg 93%
    06:00 +15°C° 0 mm 0 mps 724 mmHg 93%
    07:00 +15°C° 0 mm 0 mps 724 mmHg 92%
    08:00 +19°C° 0 mm 1 mps 724 mmHg 87%
    09:00 +20°C° 0 mm 1 mps 724 mmHg 82%
    10:00 +21°C° 0 mm 1 mps 724 mmHg 77%
    11:00 +22°C° 0 mm 1 mps 724 mmHg 73%
    12:00 +23°C° 0 mm 1 mps 724 mmHg 68%
    13:00 +24°C° 0 mm 1 mps 724 mmHg 64%
    14:00 +24°C° 0 mm 2 mps 723 mmHg 64%
    15:00 +23°C° 0 mm 2 mps 723 mmHg 65%
    16:00 +23°C° 0 mm 2 mps 723 mmHg 65%
    17:00 +20°C° 0 mm 2 mps 723 mmHg 73%
    18:00 +19°C° 0 mm 2 mps 723 mmHg 81%
    19:00 +18°C° 0 mm 1 mps 723 mmHg 89%
    20:00 +18°C° 0 mm 1 mps 723 mmHg 88%
    21:00 +16°C° 0 mm 1 mps 724 mmHg 87%
    22:00 +16°C° 0 mm 2 mps 724 mmHg 86%
    23:00 +15°C° 0 mm 1 mps 724 mmHg 86%

    18 September, Wednesday

    Time Temperature Precipitation Wind Pressure Humidity
    00:00 +14°C° 0 mm 1 mps 724 mmHg 86%
    01:00 +13°C° 0 mm 1 mps 723 mmHg 87%
    02:00 +12°C° 0 mm 1 mps 723 mmHg 87%
    03:00 +12°C° 0 mm 1 mps 723 mmHg 88%
    04:00 +11°C° 0 mm 1 mps 723 mmHg 89%
    05:00 +11°C° 0 mm 1 mps 723 mmHg 89%
    06:00 +11°C° 0 mm 1 mps 723 mmHg 88%
    07:00 +10°C° 0 mm 1 mps 723 mmHg 88%
    08:00 +12°C° 0 mm 1 mps 724 mmHg 82%
    09:00 +14°C° 0 mm 2 mps 724 mmHg 77%
    10:00 +15°C° 0 mm 2 mps 724 mmHg 71%
    11:00 +16°C° 0 mm 2 mps 724 mmHg 68%
    12:00 +17°C° 0 mm 2 mps 723 mmHg 64%
    13:00 +18°C° 0 mm 3 mps 723 mmHg 60%
    14:00 +18°C° 0 mm 3 mps 723 mmHg 61%
    15:00 +18°C° 0 mm 3 mps 723 mmHg 62%
    16:00 +18°C° 0 mm 3 mps 723 mmHg 62%
    17:00 +16°C° 0 mm 3 mps 723 mmHg 68%
    18:00 +15°C° 0 mm 2 mps 724 mmHg 73%
    19:00 +13°C° 0 mm 2 mps 724 mmHg 79%
    20:00 +12°C° 0 mm 2 mps 724 mmHg 81%
    21:00 +11°C° 0 mm 1 mps 725 mmHg 84%
    22:00 +10°C° 0 mm 1 mps 725 mmHg 86%
    23:00 +10°C° 0 mm 1 mps 725 mmHg 87%

    19 September, Thursday

    Time Temperature Precipitation Wind Pressure Humidity
    00:00 +9°C° 0 mm 1 mps 725 mmHg 88%
    01:00 +8°C° 0 mm 1 mps 725 mmHg 90%
    02:00 +8°C° 0 mm 1 mps 725 mmHg 90%
    03:00 +8°C° 0 mm 1 mps 725 mmHg 91%
    04:00 +7°C° 0 mm 1 mps 725 mmHg 91%
    05:00 +7°C° 0 mm 1 mps 725 mmHg 90%
    06:00 +7°C° 0 mm 1 mps 725 mmHg 90%
    07:00 +7°C° 0 mm 1 mps 725 mmHg 89%
    08:00 +8°C° 0 mm 2 mps 726 mmHg 81%
    09:00 +10°C° 0 mm 2 mps 726 mmHg 73%
    10:00 +12°C° 0 mm 3 mps 726 mmHg 65%
    11:00 +13°C° 0 mm 3 mps 726 mmHg 60%
    12:00 +14°C° 0 mm 3 mps 726 mmHg 56%
    13:00 +15°C° 0 mm 4 mps 726 mmHg 52%
    14:00 +15°C° 0 mm 4 mps 726 mmHg 53%
    15:00 +15°C° 0 mm 4 mps 726 mmHg 54%
    16:00 +14°C° 0 mm 4 mps 726 mmHg 56%
    17:00 +13°C° 0 mm 4 mps 726 mmHg 63%
    18:00 +11°C° 0 mm 3 mps 727 mmHg 70%
    19:00 +9°C° 0 mm 3 mps 727 mmHg 78%
    20:00 +8°C° 0 mm 3 mps 728 mmHg 80%
    21:00 +7°C° 0 mm 2 mps 728 mmHg 83%
    22:00 +7°C° 0 mm 2 mps 729 mmHg 85%
    23:00 +6°C° 0 mm 2 mps 729 mmHg 86%

    20 September, Friday

    Time Temperature Precipitation Wind Pressure Humidity
    00:00 +7°C° 0 mm 1 mps 729 mmHg 88%
    01:00 +6°C° 0 mm 1 mps 729 mmHg 89%
    02:00 +6°C° 0 mm 1 mps 728 mmHg 89%
    03:00 +5°C° 0 mm 1 mps 728 mmHg 88%
    04:00 +5°C° 0 mm 1 mps 728 mmHg 88%
    05:00 +5°C° 0 mm 1 mps 728 mmHg 87%
    06:00 +5°C° 0 mm 1 mps 728 mmHg 85%
    07:00 +5°C° 0 mm 1 mps 728 mmHg 83%
    08:00 +8°C° 0 mm 1 mps 728 mmHg 74%
    09:00 +9°C° 0 mm 2 mps 729 mmHg 64%
    10:00 +13°C° 0 mm 2 mps 729 mmHg 55%
    11:00 +13°C° 0 mm 3 mps 729 mmHg 52%
    12:00 +14°C° 0 mm 3 mps 729 mmHg 49%
    13:00 +17°C° 0 mm 3 mps 728 mmHg 45%
    14:00 +17°C° 0 mm 3 mps 728 mmHg 47%
    15:00 +17°C° 0 mm 3 mps 728 mmHg 50%
    16:00 +16°C° 0 mm 3 mps 728 mmHg 52%
    17:00 +14°C° 0 mm 2 mps 728 mmHg 61%
    18:00 +12°C° 0 mm 2 mps 728 mmHg 70%
    19:00 +10°C° 0 mm 1 mps 728 mmHg 80%
    20:00 +9°C° 0 mm 1 mps 728 mmHg 83%
    21:00 +9°C° 0 mm 1 mps 728 mmHg 85%
    22:00 +8°C° 0 mm 1 mps 729 mmHg 88%
    23:00 +8°C° 0 mm 1 mps 728 mmHg 88%
    Show more